Regional Weather Roundup
Issued by NWS

Home | Current Version | Previous Version | Graphics & Text | Print | Product List | Glossary On
Versions: 1 2 3 4 5 6 7 8 9 10 11 12 13 14 15 16 17 18 19 20 21 22 23 24 25 26 27 28 29 30 31 32 33 34 35 36 37 38 39 40 41 42 43 44 45 46 47 48 49 50
000
ASUS43 KIND 291200
RWRIN

WEATHER ROUNDUP FOR INDIANA
NATIONAL WEATHER SERVICE INDIANAPOLIS IN
800 AM EDT MON MAY 29 2017

NOTE: "FAIR" INDICATES FEW OR NO CLOUDS BELOW 12,000 FEET WITH NO
SIGNIFICANT WEATHER AND/OR OBSTRUCTIONS TO VISIBILITY.

* - STATION DOES NOT REPORT WEATHER SUCH AS PRECIPITATION OR FOG.

+ - STATION NOT QUALITY CONTROLLED BY THE NATIONAL WEATHER SERVICE.
    USE DATA WITH CAUTION...ESPECIALLY DEWPOINT AND RELATIVE
    HUMIDITY OBSERVATIONS.

INZ001>003-010>013-019-020-291300-
NORTHWEST INDIANA

CITY           SKY/WX    TMP DP  RH WIND       PRES   REMARKS
GARY /AIRPORT/ SUNNY     63  52  67 SW8       29.82R
MICHIGAN CITY+ SUNNY     61  54  77 SW5       29.81S
MONTICELLO +   SUNNY     61  55  81 SW8       29.85S
6HR MIN TEMP:  57; 6HR MAX TEMP:  61;

RENSSELAER +   SUNNY     61  54  77 SW9       29.85R

$$

LMZ046-743>745-291300-
SOUTHERN LAKE MICHIGAN

STATION/POSITION TIME  TEMP    WIND        PRES    WAVE
                       AIR SEA DIR/SP/G            HT
                 (UTC) (F)     (DEG/KT/KT) (MB)    (FT)
BURNS HARBOR     1140   63     220/  8/ 12 1009.8R
MICHIGAN CITY    1130   62     200/ 12/ 15   N/A
5NW MICH CITY    1150   59 56  210/  8/ 10   N/A     1

$$

INZ004-005-014>016-021>024-291300-
NORTH CENTRAL INDIANA

CITY           SKY/WX    TMP DP  RH WIND       PRES   REMARKS
ELKHART        MOSUNNY   61  54  77 CALM      29.82R
GOSHEN         MOSUNNY   60  53  77 SW8       29.82R
6HR MIN TEMP:  56; 6HR MAX TEMP:  61;

SOUTH BEND     SUNNY     60  55  83 SW8       29.81R
6HR MIN TEMP:  54; 6HR MAX TEMP:  60;


$$

INZ006>009-017-018-025>027-291300-
NORTHEAST INDIANA

CITY           SKY/WX    TMP DP  RH WIND       PRES   REMARKS
ANGOLA *+      PTSUNNY   61  52  72 CALM      29.83S
FORT WAYNE     CLOUDY    60  57  89 SW5       29.86R
6HR MIN TEMP:  56; 6HR MAX TEMP:  60;

KENDALLVILLE + CLOUDY    60  55  82 SW8       29.84S

$$

INZ028-029-035-036-043>045-051>053-291300-
WEST CENTRAL INDIANA

CITY           SKY/WX    TMP DP  RH WIND       PRES   REMARKS
GREENCASTLE +  SUNNY     61  55  82 CALM      29.91S
LAFAYETTE      SUNNY     59  57  93 W3        29.86R
6HR MIN TEMP:  53; 6HR MAX TEMP:  59;

TERRE HAUTE    SUNNY     63  56  78 SW7       29.91R
6HR MIN TEMP:  58; 6HR MAX TEMP:  64;


$$

INZ030>032-037>040-046>048-054>057-064-065-291300-
CENTRAL INDIANA

CITY           SKY/WX    TMP DP  RH WIND       PRES   REMARKS
COLUMBUS       SUNNY     59  59 100 CALM      29.93R
INDIANAPOLIS   MOSUNNY   61  57  87 SW7       29.89F
6HR MIN TEMP:  56; 6HR MAX TEMP:  62;

-EAGLE CREEK   SUNNY     62  56  80 SW5       29.89S
6HR MIN TEMP:  56; 6HR MAX TEMP:  64;

KOKOMO +       SUNNY     64  55  72 SW10      29.88R
6HR MIN TEMP:  57; 6HR MAX TEMP:  64;

SHELBYVILLE    SUNNY     63  58  83 SW6       29.91R
6HR MIN TEMP:  59; 6HR MAX TEMP:  63;


$$

INZ033-034-041-042-049-050-058-059-291300-
EAST CENTRAL INDIANA

CITY           SKY/WX    TMP DP  RH WIND       PRES   REMARKS
MUNCIE         SUNNY     63  56  78 SW7       29.89R
6HR MIN TEMP:  61; 6HR MAX TEMP:  64;

RICHMOND +     SUNNY     61  59  94 SW6       29.93S

$$

INZ060-061-067>069-081>083-085>088-291300-
SOUTHWEST INDIANA

CITY           SKY/WX    TMP DP  RH WIND       PRES   REMARKS
EVANSVILLE     CLOUDY    66  62  87 SW6       29.94S
6HR MIN TEMP:  62; 6HR MAX TEMP:  66;

HUNTINGBURG *+ CLOUDY    65  63  93 S3        29.95R
6HR MIN TEMP:  63; 6HR MAX TEMP:  65;


$$

INZ062-063-066-070>080-084-089>092-291300-
SOUTH CENTRAL AND SOUTHEAST INDIANA

CITY           SKY/WX    TMP DP  RH WIND       PRES   REMARKS
BLOOMINGTON    SUNNY     63  57  81 SW7       29.92S
6HR MIN TEMP:  60; 6HR MAX TEMP:  64;

MADISON *+     MOSUNNY   63  61  94 CALM      29.96S
SEYMOUR +      MOSUNNY   66  61  82 CALM      29.93S

$$





USA.gov is the U.S. government's official web portal to all federal, state and local government web resources and services.